Wind_Speed
17 17 17 17 17 17 17 17 17 17 17 17 19 20 22 23 24 25 26 26 27 28 29 30 30 31 31 32 33 34 35 35 36 36 36 38 39 39 39 38 39 40 40 40 40 39 40 40 40 41 38 36 36 34 33 34 34 33 33 32 31 31 29 22 14 13 18 22 23 24 26 25 23 21 21 21 23 22 22 23 23 23 24 24 24
20 20 21 21 21 20 19 19 19 19 19 19 20 21 22 24 25 25 26 26 26 27 28 29 30 30 30 31 32 32 33 34 34 33 34 36 37 38 38 37 38 39 38 38 40 39 39 39 40 39 37 36 37 35 33 33 32 33 33 32 31 31 31 28 20 13 14 19 22 23 24 26 27 26 24 23 25 23 22 24 24 25 25 24 23
22 23 24 24 23 22 22 21 20 21 21 21 22 22 23 24 26 27 27 27 26 27 27 28 29 29 29 30 30 31 32 32 33 33 33 34 35 36 37 36 37 38 38 39 40 38 38 38 40 39 36 35 37 35 34 34 33 33 34 33 33 32 32 32 26 17 14 17 20 22 23 25 28 27 24 24 25 24 24 25 25 25 25 24 24
24 24 26 26 25 24 23 22 21 21 22 22 22 22 23 24 26 28 28 27 26 26 26 26 27 28 30 30 30 30 31 31 32 32 33 34 35 36 36 36 37 38 39 40 40 38 38 39 40 39 35 35 36 35 35 35 35 34 34 33 34 34 33 33 31 27 21 18 19 22 24 25 27 28 27 25 26 28 29 29 28 27 26 25 25
25 26 27 26 24 22 22 22 21 21 21 22 22 23 23 24 26 27 27 27 25 25 27 28 27 27 29 30 30 30 31 31 31 32 33 33 34 36 36 36 37 38 39 40 40 39 39 40 40 38 35 35 36 35 35 36 35 35 35 34 34 34 33 33 33 33 28 22 21 22 23 26 27 29 30 29 28 29 30 30 29 28 27 26 25
26 27 26 24 21 20 19 20 20 21 21 22 23 24 24 25 26 26 26 26 25 26 29 31 30 28 28 28 29 30 31 31 31 32 32 32 33 35 36 37 37 38 39 39 39 39 39 41 41 38 36 36 37 36 36 36 35 35 35 35 34 33 32 32 33 32 31 29 26 23 23 26 27 28 30 30 28 28 29 29 29 29 28 27 26
21 21 20 19 18 17 17 17 18 19 20 22 24 24 24 25 26 27 26 26 27 28 30 32 31 30 29 28 28 29 30 31 32 32 32 32 33 33 35 36 36 37 38 39 39 39 40 41 41 39 38 39 39 38 37 36 36 36 37 36 34 32 31 31 31 30 29 28 26 24 23 24 26 26 28 29 28 29 29 26 24 26 27 27 26
10 12 14 14 14 14 15 15 16 17 18 20 22 23 23 24 24 26 27 27 28 29 31 33 32 30 29 28 28 29 29 31 32 32 32 33 32 33 34 35 35 36 37 38 39 39 40 41 41 40 40 41 42 41 39 37 35 35 37 36 33 32 31 30 29 28 27 24 23 24 23 22 24 24 24 24 22 24 28 26 23 24 28 28 27
7 9 11 12 13 13 14 14 15 16 17 18 19 20 21 22 23 24 26 27 28 29 30 32 32 31 29 29 29 30 31 32 33 32 32 33 33 33 33 34 34 35 36 37 38 38 39 40 41 41 42 42 44 43 43 41 38 37 36 34 32 31 30 29 27 25 24 21 21 22 19 18 21 22 21 23 23 24 27 28 25 25 28 28 26
9 8 9 11 12 13 13 14 15 15 16 17 18 18 19 19 21 23 24 26 26 27 28 30 31 31 30 30 31 32 33 34 34 32 31 32 32 33 33 34 34 34 35 36 37 38 39 39 41 42 42 43 44 45 46 45 44 43 41 36 34 32 30 28 27 26 23 19 19 19 13 11 17 21 21 24 28 28 27 27 26 23 21 19 17
11 10 9 9 10 11 13 14 14 15 15 16 17 18 19 19 21 22 24 25 26 27 29 31 31 32 31 32 33 34 35 36 35 33 31 31 31 32 33 34 34 33 34 35 36 37 38 38 40 41 41 42 44 45 46 47 47 47 47 44 41 38 35 30 27 26 24 20 21 21 14 13 19 23 24 24 25 27 27 28 27 22 17 11 7
11 10 9 9 11 13 15 17 17 17 17 18 19 19 20 21 22 24 24 25 26 27 29 31 32 32 33 33 35 36 37 37 35 33 31 31 30 31 33 34 34 34 34 34 36 36 36 37 38 39 40 41 42 42 43 45 47 48 48 48 46 45 44 40 35 31 26 22 21 21 21 21 23 25 26 26 27 29 29 29 28 25 20 14 9
9 9 11 13 15 17 18 20 21 21 21 22 22 22 23 24 25 26 26 26 27 27 29 30 31 33 33 33 35 37 38 38 36 33 32 31 29 29 31 34 34 34 34 35 35 35 35 35 36 37 39 40 40 41 41 42 44 46 47 48 48 49 50 49 47 43 38 32 26 25 27 26 24 27 30 30 29 30 28 27 28 27 23 20 19
9 11 13 15 17 18 19 20 22 22 23 23 24 25 25 25 26 26 26 27 28 29 30 31 32 33 33 33 35 37 39 39 36 33 32 31 29 28 30 33 33 33 34 35 35 35 35 35 34 36 38 38 38 39 40 39 38 39 41 44 47 49 49 50 52 51 48 42 35 33 35 32 30 30 30 31 33 32 29 28 29 29 27 25 23
15 17 18 18 20 20 20 20 21 22 23 23 24 25 25 25 26 26 26 27 28 29 30 31 32 34 34 33 33 36 40 40 36 33 32 31 29 28 29 31 33 33 34 35 34 35 35 35 35 37 38 38 38 38 38 38 36 34 35 39 43 45 46 47 48 48 48 46 43 43 42 39 38 35 31 31 34 35 35 34 33 32 28 21 17
20 21 22 22 22 21 21 20 20 22 24 24 24 25 25 26 26 26 27 28 28 29 29 30 31 33 33 32 32 35 40 41 36 33 32 30 28 27 28 30 31 33 35 35 34 34 35 35 36 36 37 39 39 39 38 37 35 34 34 35 37 39 42 45 46 46 46 46 47 48 44 39 36 36 36 37 36 36 34 29 27 26 20 12 9
17 18 20 21 22 22 22 21 20 22 24 25 25 26 26 27 26 25 26 28 28 28 28 29 30 31 32 32 31 33 39 41 36 33 33 31 27 27 28 29 30 31 33 34 32 33 35 36 35 35 37 38 38 37 36 36 36 35 34 33 33 34 38 41 41 43 45 43 43 44 43 40 36 35 37 38 37 36 30 21 21 23 16 7 6
14 16 19 21 21 21 21 21 21 22 23 23 25 27 27 28 27 26 25 26 28 27 27 28 30 29 29 29 29 30 35 38 35 32 33 31 27 27 27 27 28 30 31 31 31 32 34 35 34 35 37 39 38 34 33 34 35 34 33 31 28 29 34 35 32 34 37 38 37 37 36 37 36 34 35 35 35 38 35 28 28 26 16 8 6
17 19 20 20 20 20 20 19 20 22 23 24 24 26 26 26 26 26 25 25 27 27 25 26 28 29 27 26 27 27 30 34 33 30 31 30 27 26 26 25 26 28 28 28 31 32 33 34 34 33 36 38 38 35 33 33 35 36 34 29 25 29 34 31 28 30 31 31 33 34 32 31 31 30 31 31 32 35 35 32 30 26 18 12 10
22 22 22 21 20 19 19 19 20 21 22 24 24 23 24 24 24 24 25 24 25 26 25 24 26 28 26 24 25 25 25 29 30 27 27 28 25 23 24 25 26 26 26 27 30 31 32 33 32 32 32 34 35 35 34 33 35 37 35 30 28 32 32 28 29 33 34 32 32 32 30 28 28 27 28 29 30 32 30 26 24 22 20 18 16
26 24 23 22 20 19 19 19 19 20 20 22 22 21 21 22 22 23 23 23 23 24 25 24 25 27 27 24 24 24 23 24 27 25 24 24 22 20 23 26 26 26 27 28 29 30 31 31 31 31 30 31 33 33 34 33 34 37 37 35 35 35 31 29 33 35 34 32 29 27 25 24 24 25 27 28 29 29 27 23 20 19 20 21 21
27 25 23 21 19 18 19 19 18 18 19 20 20 19 19 19 20 21 21 22 23 23 23 23 24 27 28 26 24 24 23 22 24 24 23 22 21 19 21 25 26 27 28 29 28 29 30 30 31 31 30 30 32 33 34 34 34 36 38 38 36 34 30 29 31 31 29 27 25 24 24 24 23 22 24 24 24 23 22 20 18 17 17 18 19
26 24 22 20 18 17 17 18 17 17 18 20 19 17 18 19 18 19 20 21 22 22 21 23 23 25 26 26 25 25 25 24 23 22 22 21 21 20 21 23 26 27 28 30 31 30 30 31 32 31 30 31 32 34 35 37 38 39 41 40 36 33 29 26 26 27 27 25 23 22 22 24 26 25 24 24 23 21 20 18 16 15 14 15 17
25 23 21 19 17 16 16 17 16 15 17 18 17 15 16 17 17 17 18 19 19 19 20 23 23 22 23 25 26 26 26 25 22 21 21 21 21 22 23 24 25 25 27 31 32 32 31 32 33 32 31 30 31 33 34 36 38 39 40 39 35 30 27 26 26 27 26 24 23 23 23 25 28 28 27 26 23 20 18 16 13 12 12 13 14
24 23 20 18 17 17 16 16 16 15 14 15 15 14 14 14 14 15 16 17 17 17 18 21 21 20 20 22 25 27 27 25 24 23 23 24 24 24 25 25 24 24 26 29 31 31 31 31 31 30 29 28 27 28 29 30 31 32 31 30 29 27 26 27 27 26 25 22 22 25 27 27 27 27 26 24 22 19 18 16 15 14 14 13 12
22 22 19 19 20 19 16 15 16 15 14 13 14 13 12 12 12 13 13 14 14 15 16 17 18 19 19 20 22 26 27 24 24 25 25 26 26 26 26 26 26 24 24 26 28 28 28 28 26 25 24 23 22 22 22 21 21 22 22 22 23 23 23 23 23 23 24 22 21 24 26 26 24 24 23 23 22 22 22 23 22 21 20 19 17
19 19 19 20 21 19 17 16 16 15 15 14 13 13 13 12 11 11 12 12 13 15 15 15 16 17 18 20 22 23 23 22 22 24 25 26 27 28 27 27 27 25 24 23 23 23 23 21 19 18 16 15 14 14 14 14 14 15 17 19 19 19 19 19 18 19 19 18 18 20 21 21 21 22 23 24 25 25 25 26 26 24 22 20 18
16 16 17 17 17 17 17 17 17 17 17 16 15 14 13 13 12 11 11 12 13 14 14 14 16 16 17 20 22 20 19 21 22 23 24 25 26 27 27 26 26 25 24 22 20 18 17 14 12 11 9 9 8 8 8 9 10 11 12 13 14 15 16 16 15 14 14 15 15 16 17 17 18 19 20 21 21 22 23 24 24 23 22 19 15
15 14 15 15 15 16 16 17 17 17 18 19 19 17 14 13 12 12 11 11 11 13 13 14 16 17 17 18 19 17 17 21 23 22 21 21 22 22 23 23 23 22 21 18 16 13 11 8 6 5 4 4 4 4 5 5 6 7 7 7 8 9 10 12 12 13 14 17 19 20 20 20 19 19 18 17 16 18 20 20 19 20 20 17 13
15 14 14 14 15 16 16 15 16 16 17 18 20 20 19 16 12 11 11 10 9 11 12 13 15 17 18 18 18 16 17 21 22 21 20 19 19 20 20 19 18 17 15 14 12 9 6 4 3 2 1 2 2 2 3 4 4 5 5 6 7 7 7 8 10 12 15 17 20 21 21 21 21 21 21 19 18 18 18 17 17 18 17 14 11
14 14 14 14 15 16 15 15 16 15 15 16 17 19 22 22 17 13 11 9 9 11 12 12 13 15 17 18 19 19 19 21 22 21 20 19 18 18 19 19 18 15 13 12 11 8 5 3 2 2 1 1 1 2 3 4 5 5 5 6 6 7 7 8 10 13 15 16 16 17 18 19 19 19 20 21 21 21 19 18 17 17 15 14 12
14 14 14 14 15 16 15 15 15 15 15 15 14 14 17 20 21 19 17 13 10 10 12 13 14 15 16 17 19 20 21 22 22 22 21 19 18 17 16 17 18 17 14 12 11 9 7 4 3 2 2 2 2 2 3 4 5 6 7 7 7 7 7 8 10 12 13 12 12 12 13 14 15 15 16 18 19 18 17 17 16 16 15 14 13
15 14 14 15 15 15 15 14 15 15 14 15 14 13 13 14 16 20 22 19 15 12 12 14 15 16 16 17 18 19 21 21 22 23 22 20 18 18 16 14 14 15 13 12 13 13 11 10 9 7 4 3 2 3 4 5 6 7 8 9 9 10 9 8 10 11 12 11 11 11 11 12 13 14 14 15 15 15 15 14 15 15 14 13 12
15 14 15 15 15 15 14 14 15 15 14 14 14 14 14 13 12 15 17 18 18 17 17 17 16 17 18 18 18 19 20 20 21 21 21 20 18 17 15 12 10 12 14 16 16 15 14 14 16 16 14 11 8 5 5 5 6 8 9 10 12 12 12 12 12 13 12 12 12 12 12 13 14 15 14 14 14 14 13 13 13 13 12 12 11
15 14 15 15 14 14 14 14 15 15 15 15 15 14 14 13 12 11 12 12 14 16 19 20 19 18 20 20 20 20 19 19 18 18 18 18 16 14 12 13 15 16 18 19 19 18 17 16 17 18 18 17 15 13 11 9 8 8 9 10 11 12 13 15 15 15 14 14 13 12 12 12 13 14 14 13 13 13 12 12 12 11 11 11 11
16 16 16 15 15 15 15 14 15 15 15 16 15 15 14 12 12 11 10 10 11 12 16 20 21 20 21 22 22 21 19 18 17 17 17 17 16 15 16 17 17 18 19 21 20 20 20 19 19 19 19 18 17 16 15 14 13 11 10 10 10 11 12 12 13 15 15 15 14 13 12 11 11 11 12 12 11 11 11 11 11 11 10 10 10
16 17 18 17 16 16 15 14 14 14 15 16 16 16 14 13 13 12 10 9 10 11 14 18 20 21 23 25 26 24 20 17 16 17 17 18 18 20 21 18 15 15 18 19 19 20 21 20 19 19 19 18 18 17 16 15 15 14 13 13 13 13 13 12 12 13 13 14 13 12 11 11 10 10 11 11 11 11 11 11 11 10 9 9 8
16 16 17 16 16 16 15 14 14 14 15 16 16 15 14 12 13 13 10 9 10 10 12 15 16 17 19 24 26 25 21 19 19 19 21 22 22 22 22 20 17 16 17 18 18 18 19 18 18 17 17 17 16 16 16 15 14 14 14 14 14 14 13 13 13 13 13 13 13 12 11 10 9 9 10 11 12 11 11 11 10 9 7 7 6
17 16 15 15 15 15 14 13 13 14 15 15 15 14 13 12 12 12 11 11 11 11 12 13 13 14 16 20 23 23 20 19 19 19 20 21 22 22 21 20 20 19 18 19 19 18 17 17 16 16 15 15 14 14 13 13 12 12 11 11 12 13 13 13 13 13 13 14 13 13 12 11 10 10 10 11 11 11 10 9 8 7 6 5 5
18 17 16 15 14 14 12 12 12 14 14 14 13 13 12 12 12 12 12 11 11 11 11 11 11 13 14 17 19 18 16 15 15 15 15 17 18 19 19 19 19 18 18 18 18 17 16 16 15 15 14 14 13 12 12 11 10 10 9 9 10 11 12 12 12 12 13 13 13 13 13 12 11 11 11 10 10 9 9 8 8 7 7 6 5
17 16 15 14 14 12 11 11 12 14 14 13 12 12 12 12 12 12 11 10 10 11 11 11 12 12 13 14 15 15 13 13 13 14 14 15 15 16 16 16 16 16 16 16 16 15 15 14 14 14 14 13 12 12 11 10 10 9 10 10 11 12 12 12 12 12 12 12 12 12 12 11 11 11 11 10 9 9 9 8 8 7 7 6 5
15 14 14 13 13 12 12 12 13 13 13 13 13 12 12 12 12 11 11 10 10 10 11 11 13 13 13 14 14 13 13 13 12 13 13 14 14 14 15 15 14 14 14 13 13 12 12 13 13 13 13 13 13 12 11 10 10 10 10 11 12 13 13 13 12 12 12 12 12 12 11 11 11 11 11 10 9 9 9 8 7 6 6 5 5
14 13 12 12 12 11 11 12 13 13 13 13 13 12 11 11 11 11 10 10 10 10 10 11 13 14 14 14 13 13 13 13 12 12 12 13 13 14 14 14 13 12 11 11 10 10 10 11 11 11 11 11 11 11 11 11 10 10 10 11 12 13 13 12 11 11 11 11 11 11 11 10 10 10 10 9 9 9 8 7 6 6 5 5 5
14 13 12 11 11 10 10 10 11 12 11 11 11 11 11 12 11 11 10 10 9 10 11 11 12 13 14 14 14 13 13 13 12 11 12 12 13 13 13 13 13 12 12 11 10 10 10 10 10 10 11 10 10 10 10 9 9 9 10 11 12 13 12 12 11 10 9 10 10 10 10 10 10 10 9 8 8 7 7 7 6 6 5 5 5
14 13 12 12 11 11 11 10 10 11 11 10 11 11 11 11 11 11 11 11 10 11 12 12 12 12 13 14 14 14 13 12 11 11 11 12 12 12 12 12 12 13 12 12 11 11 11 11 11 10 11 10 9 9 9 9 9 9 9 9 11 11 11 11 10 9 9 10 10 10 9 9 9 8 8 7 7 7 6 6 5 5 4 4 5
14 13 12 12 11 12 11 11 10 10 10 10 11 11 11 11 11 11 11 11 11 11 12 12 12 12 12 12 13 12 12 12 12 11 12 12 11 11 11 11 11 12 12 11 11 11 11 11 11 10 10 9 9 8 8 8 8 9 9 9 10 10 10 9 9 9 9 9 9 9 8 8 8 7 7 6 6 5 5 5 4 4 4 4 4
14 13 12 11 11 11 11 10 10 10 10 10 10 11 11 11 11 11 11 11 11 11 12 12 12 12 12 11 11 11 11 11 12 12 12 12 11 11 11 10 11 11 11 11 11 11 11 11 10 10 9 9 8 8 7 7 8 8 9 9 9 9 9 9 8 8 8 7 7 7 7 6 6 6 6 5 5 5 4 5 5 5 5 4 4
14 14 13 11 11 11 11 11 11 11 11 11 11 10 10 10 11 11 11 11 11 11 12 12 12 12 12 11 10 10 10 10 11 11 11 11 11 11 10 10 10 10 10 10 10 10 10 10 10 9 9 9 8 8 7 7 7 8 8 9 9 8 8 8 7 7 7 6 6 6 6 6 6 6 5 5 5 5 5 5 5 5 5 5 5
14 13 13 12 11 10 11 11 10 11 11 11 11 11 11 11 11 10 10 11 11 11 12 12 12 12 12 11 10 10 10 10 11 11 11 11 11 10 10 10 10 10 10 10 10 10 9 9 9 9 9 9 9 9 9 8 8 7 7 8 8 7 7 6 6 6 7 7 7 7 6 6 6 6 5 5 4 4 5 5 5 5 5 5 6
14 13 12 11 10 10 10 10 9 9 10 10 11 11 12 12 11 11 10 11 11 11 11 12 11 11 11 11 11 10 10 10 10 10 10 10 10 9 9 9 9 9 9 10 10 9 9 9 8 8 9 9 9 9 9 9 8 7 7 7 7 7 6 6 6 7 7 7 7 7 7 7 7 6 6 5 5 5 5 5 5 6 6 6 7
14 13 12 11 9 9 9 9 9 10 10 10 10 11 12 12 12 11 11 11 11 11 11 11 10 10 10 11 10 10 10 9 9 9 10 9 9 9 8 8 8 8 8 9 9 9 9 9 8 8 8 7 8 8 8 8 8 7 6 7 7 6 6 6 7 8 7 7 7 7 8 8 7 6 6 6 6 6 6 6 6 6 7 7 7
Wind_Direction
305 302 299 294 290 289 290 291 291 290 286 281 277 275 276 277 278 280 281 281 282 281 280 278 276 274 271 269 267 264 262 260 258 254 251 249 249 248 248 246 244 244 245 245 244 243 243 244 245 245 244 243 243 241 240 238 237 236 234 233 233 233 232 232 244 260 257 252 249 251 256 259 258 259 261 265 269 262 243 231 231 232 232 232 232
303 301 298 294 289 288 288 287 288 289 289 288 286 284 285 286 288 288 287 288 289 288 287 286 284 281 278 274 272 270 267 265 263 259 254 253 251 249 248 246 245 245 245 245 244 243 243 244 246 246 244 243 243 242 240 238 236 235 232 231 232 232 229 230 238 254 259 252 245 243 247 251 255 258 259 263 266 258 237 225 223 224 227 230 232
302 299 296 293 291 290 289 287 286 286 286 287 289 291 292 295 295 293 292 294 294 293 291 291 290 287 284 281 278 275 272 270 268 264 260 258 255 253 251 248 246 245 244 245 245 244 243 244 246 246 244 243 243 241 240 239 236 235 234 231 232 233 230 230 235 244 256 256 247 240 239 242 249 254 258 259 259 254 242 231 227 226 228 231 234
302 299 295 293 294 294 293 292 290 288 288 290 292 295 297 298 298 297 296 295 297 299 298 295 293 290 287 285 283 280 277 275 273 269 266 263 261 259 256 252 249 248 246 246 246 244 243 244 245 245 242 241 242 241 239 238 236 235 235 234 233 234 234 232 234 240 249 255 248 240 237 237 242 250 256 255 253 252 248 240 233 231 231 231 233
300 299 297 295 296 296 297 299 298 297 298 298 300 302 303 302 301 300 298 296 298 304 305 301 297 293 289 288 286 285 283 281 278 275 272 269 266 263 261 258 254 252 250 249 248 246 244 244 245 244 241 240 241 240 238 237 236 235 236 235 235 236 236 235 235 237 241 247 248 243 237 236 240 247 251 250 249 250 247 241 235 231 230 229 230
297 297 297 296 295 297 302 307 310 311 311 310 310 310 309 308 307 304 301 298 298 302 303 302 300 296 293 290 288 287 287 286 283 281 278 275 271 268 265 262 259 257 254 252 251 248 247 247 246 244 240 239 240 240 239 237 237 236 237 237 237 237 237 236 235 235 237 242 245 242 235 232 233 238 241 240 243 246 243 237 232 228 225 224 225
303 304 305 305 305 310 316 320 321 321 318 317 316 315 314 313 310 307 304 298 296 299 300 300 301 300 296 292 289 289 288 287 285 284 282 279 275 272 269 265 263 260 258 256 254 251 249 249 248 245 242 240 240 240 239 238 238 238 239 239 238 236 235 235 234 233 235 239 242 240 237 232 229 231 232 231 237 244 238 229 225 221 219 221 225
327 329 329 330 331 331 328 325 323 321 318 317 315 315 315 314 311 308 305 300 298 299 300 301 302 301 297 294 292 291 289 287 285 283 282 280 276 273 270 267 265 263 261 259 257 254 252 251 249 248 245 243 243 242 241 240 239 239 240 239 237 235 233 234 233 232 234 237 241 240 236 231 225 223 225 224 229 237 231 223 224 223 221 222 226
349 344 342 343 341 334 328 325 322 320 318 316 315 315 315 314 313 309 304 301 299 298 299 301 301 300 298 297 295 293 290 288 287 285 282 281 278 274 271 268 265 263 262 261 259 257 255 253 252 251 249 247 247 245 244 242 240 240 240 238 235 232 232 233 232 231 232 235 240 238 232 229 223 217 217 215 218 229 229 224 226 227 223 223 224
351 350 347 344 336 329 326 324 322 321 320 318 316 315 315 314 312 308 304 301 298 297 298 298 298 298 298 297 296 294 292 290 289 288 285 283 281 278 275 272 268 265 263 262 261 259 257 256 255 255 253 252 251 249 247 245 242 242 242 239 234 232 232 233 234 233 231 232 236 233 227 230 225 217 218 220 220 225 225 219 220 221 218 219 225
354 359 356 347 335 329 326 323 323 324 323 321 318 316 316 313 310 307 304 302 300 299 298 297 296 297 297 296 296 294 293 293 292 291 289 286 283 280 278 275 273 270 266 263 262 261 260 259 258 257 256 254 253 252 250 248 246 244 243 241 237 234 233 233 235 234 231 232 234 230 225 233 229 219 220 225 224 224 222 218 217 211 204 209 223
360 5 1 349 339 335 331 328 328 329 328 325 321 319 317 314 312 311 309 306 305 301 298 297 296 297 296 295 294 293 293 294 294 294 292 289 286 282 278 276 273 272 270 267 265 264 263 262 260 259 257 255 254 253 252 251 248 246 245 243 240 238 236 235 235 234 233 235 237 233 230 234 234 226 222 223 225 227 226 221 215 208 205 209 211
4 2 355 348 344 340 335 332 331 332 331 328 323 321 319 316 315 315 313 310 307 302 299 298 297 296 297 295 294 294 294 293 294 295 294 293 290 285 281 277 274 271 270 269 268 267 265 264 262 260 258 257 255 253 252 251 250 248 246 244 242 240 239 237 237 236 236 236 236 238 236 235 236 233 228 224 223 222 220 216 213 211 210 213 217
7 1 355 352 350 346 341 338 335 334 333 330 326 324 323 321 318 318 316 311 307 304 301 299 298 297 297 297 296 295 294 293 294 296 296 295 293 288 284 280 276 273 270 269 268 267 267 265 264 262 261 258 255 252 250 248 248 247 244 242 241 240 239 238 237 236 236 234 234 240 243 242 242 240 232 224 222 220 216 214 215 213 212 217 224
3 359 357 355 354 352 349 344 340 338 337 335 332 329 328 325 322 322 320 313 309 307 303 301 300 298 299 299 298 296 294 294 296 297 296 297 295 290 285 281 278 275 273 271 268 267 267 266 266 264 263 261 257 253 250 246 244 244 242 240 240 240 240 240 239 238 236 236 238 244 246 243 240 240 236 231 230 230 227 226 223 217 212 213 216
2 358 357 356 353 352 350 345 342 343 342 340 337 334 331 328 325 324 322 316 312 310 307 305 303 301 302 301 299 297 295 296 298 299 298 298 296 291 285 280 277 275 275 274 272 270 269 267 265 265 265 264 260 256 252 247 242 239 239 239 240 240 240 242 243 242 241 241 243 245 246 243 240 241 243 242 238 232 226 222 217 207 198 195 200
2 358 357 356 353 351 346 343 341 342 342 340 336 333 329 326 325 325 321 316 314 312 310 309 307 305 304 302 300 298 297 298 300 300 300 298 294 290 284 279 276 274 274 275 275 274 272 269 266 265 265 265 264 261 255 247 239 236 237 239 239 241 243 243 242 241 242 243 244 244 244 245 246 248 246 242 237 226 213 199 193 189 184 188 202
357 355 357 358 357 352 346 342 340 339 337 334 330 328 327 325 324 324 320 314 312 312 312 311 308 307 305 304 303 299 298 300 302 301 300 298 293 287 283 277 274 273 275 277 278 276 274 273 269 266 265 265 265 266 261 247 236 233 236 237 238 240 243 242 237 236 237 239 242 246 247 247 250 249 242 235 230 221 210 201 194 188 182 194 195
350 351 353 355 356 354 348 343 340 336 332 329 327 325 324 324 325 325 322 317 313 313 314 312 310 309 309 308 306 303 300 303 306 304 302 300 294 287 281 274 271 273 275 279 280 278 276 275 273 268 266 267 267 268 265 252 238 235 235 233 234 240 241 238 234 234 235 236 240 247 249 247 244 240 233 226 220 214 210 208 201 192 189 195 182
349 349 349 353 355 354 351 345 339 334 330 328 328 327 326 325 326 325 324 321 318 317 318 318 314 313 314 314 312 310 308 308 309 310 307 303 296 288 279 270 266 270 275 277 278 279 278 277 276 272 269 269 269 268 266 257 244 239 235 229 230 238 242 241 239 239 237 236 237 238 236 231 224 217 211 206 202 202 206 210 209 207 204 194 181
350 349 350 353 353 351 350 344 337 334 333 332 331 331 331 328 325 325 325 324 323 321 322 323 320 317 318 320 318 318 319 316 314 314 312 306 301 291 279 271 267 268 272 273 273 275 276 276 277 276 272 271 271 269 267 261 250 240 234 230 232 239 244 244 241 236 230 227 223 216 210 206 201 197 192 189 190 194 198 204 211 214 211 199 189
348 349 351 351 349 348 347 344 341 338 339 340 338 336 336 333 330 331 333 331 329 326 324 326 324 320 320 323 325 327 329 325 320 318 314 309 306 297 283 277 275 271 269 271 271 271 274 275 277 277 275 274 272 269 266 262 255 245 239 237 239 244 246 240 232 223 216 211 204 196 192 188 183 183 183 182 185 188 192 196 200 202 205 205 201
346 349 351 350 349 348 345 345 346 344 343 345 344 339 338 338 338 340 342 339 335 331 331 331 328 323 322 325 328 332 333 329 324 320 316 312 308 302 291 284 281 276 271 270 272 273 275 276 277 278 279 277 275 271 266 261 255 251 248 247 247 244 239 229 218 209 203 198 192 189 188 185 180 179 179 182 185 187 188 189 191 194 201 209 213
347 348 350 349 347 346 346 348 348 344 345 348 348 345 343 341 341 344 346 346 342 337 337 337 333 327 325 325 329 333 335 332 327 322 320 316 312 309 304 297 291 286 280 277 277 279 280 280 281 282 282 280 276 272 267 260 255 251 249 246 242 235 225 214 206 200 194 191 189 188 189 188 184 181 181 184 186 186 186 187 190 198 204 208 211
347 346 344 343 345 346 345 347 348 346 347 347 347 349 349 344 342 343 346 349 347 342 341 343 339 333 328 327 329 333 336 335 332 330 328 326 324 323 320 316 309 299 290 284 284 285 286 286 286 284 281 277 272 266 261 256 250 246 242 236 228 221 214 207 200 194 191 192 193 190 188 189 188 185 184 185 185 184 182 177 171 168 168 170 174
344 341 335 337 349 353 345 342 346 346 345 344 343 345 348 346 343 343 346 349 349 343 342 346 346 341 336 332 332 335 337 336 335 336 336 334 332 331 329 326 323 315 303 293 289 290 290 288 284 280 275 270 262 254 248 243 238 232 226 220 215 212 208 202 196 193 193 194 192 188 186 186 188 188 185 181 179 178 173 165 158 155 157 160 163
339 334 330 335 347 351 343 338 340 340 341 343 342 340 343 345 344 346 350 352 350 348 346 345 347 346 342 339 340 343 344 343 341 341 340 336 333 331 329 327 325 320 312 302 294 292 290 285 278 272 266 256 247 240 234 226 217 210 206 206 207 208 207 204 201 199 196 191 185 182 181 180 179 178 173 168 168 168 167 164 160 160 165 168 168
332 327 328 332 338 340 338 337 337 337 338 340 339 336 336 337 337 343 353 355 353 352 351 350 350 350 346 344 347 350 351 351 351 348 343 338 333 331 329 327 325 319 312 304 296 291 287 281 273 264 250 236 228 221 210 200 195 193 194 197 201 203 203 202 199 194 188 180 169 162 160 160 160 160 160 159 160 163 167 167 164 164 167 167 164
329 328 331 333 334 335 336 335 335 337 337 337 338 337 336 336 333 332 340 353 359 358 358 359 359 357 356 355 354 353 353 352 351 349 346 344 342 338 334 330 325 320 314 306 297 290 286 280 276 273 254 231 214 197 183 174 169 169 171 174 178 181 184 185 180 174 172 168 159 152 150 148 148 149 150 150 155 164 170 170 165 162 163 162 159
331 335 336 336 335 335 334 335 336 337 337 337 337 336 338 344 347 341 336 343 358 6 7 7 7 7 7 4 0 358 355 352 350 347 345 347 348 346 345 341 333 326 321 312 300 293 295 291 286 293 262 201 175 158 153 144 136 136 143 151 155 156 159 163 162 161 162 159 153 151 150 148 148 150 150 150 156 164 168 169 165 161 159 156 151
333 335 336 335 334 332 330 331 333 334 336 339 338 336 335 338 345 355 356 350 354 4 8 9 13 14 12 7 3 0 358 356 354 350 346 346 348 348 348 350 347 339 330 322 311 304 309 324 340 10 49 109 119 114 129 129 122 122 126 129 138 144 146 147 150 152 154 153 151 151 152 152 152 153 154 155 158 160 162 165 165 164 162 157 150
333 332 332 331 331 330 328 329 332 333 334 337 339 338 335 333 335 343 352 358 2 5 7 9 11 12 12 10 6 3 1 359 357 354 349 347 347 345 344 347 349 341 332 331 333 328 324 330 343 12 69 89 89 101 119 119 117 122 120 111 107 115 123 131 141 144 142 140 141 144 147 150 149 148 149 151 149 149 152 155 157 157 155 151 146
336 331 329 330 332 331 330 330 332 333 332 333 335 336 335 331 327 329 337 347 357 5 11 12 10 7 8 8 7 5 2 0 359 358 354 350 348 346 343 345 351 351 354 7 9 359 355 1 5 8 23 58 100 124 128 119 114 116 116 109 104 104 109 118 128 130 128 129 131 131 132 137 137 133 134 137 137 137 137 139 143 145 143 139 135
339 332 330 332 332 331 332 332 331 331 331 330 331 331 329 328 325 323 328 338 347 354 2 9 12 11 8 7 9 8 5 4 3 1 358 356 355 348 339 341 357 11 25 36 33 20 13 16 17 19 24 29 37 60 86 104 114 115 115 116 116 118 123 128 126 121 120 124 128 129 133 138 138 134 131 131 132 133 132 133 138 141 138 134 131
343 337 334 334 333 331 332 330 328 329 329 328 328 327 323 324 328 330 333 339 342 344 348 354 3 11 12 12 13 12 9 10 10 7 5 7 5 358 359 14 25 29 35 42 42 36 31 29 28 30 34 35 36 40 46 56 74 92 103 110 115 118 124 129 130 129 130 130 127 128 133 138 141 142 141 138 136 135 132 133 137 138 138 138 136
349 342 338 338 334 331 330 327 327 329 328 327 328 327 325 327 332 337 344 349 348 346 346 347 353 2 10 14 16 15 14 17 20 21 24 27 29 35 40 38 34 34 37 42 44 45 44 43 40 40 42 44 45 47 49 51 55 62 74 87 96 99 103 110 118 125 130 131 131 132 135 135 138 143 141 134 130 130 129 129 132 134 137 142 144
350 344 342 339 333 331 332 329 328 330 328 329 332 332 331 335 339 341 350 358 356 354 354 354 356 359 2 6 9 10 12 19 27 33 36 38 44 51 50 41 30 28 32 34 37 42 44 45 46 46 47 49 51 53 56 59 61 63 66 69 76 81 86 93 102 109 113 115 116 120 124 126 134 144 143 133 125 125 126 128 128 128 131 139 144
352 347 347 342 334 333 334 331 332 334 333 333 337 337 335 338 342 344 349 358 1 1 1 3 5 1 356 357 359 0 3 11 21 27 31 35 40 45 44 39 33 29 26 27 31 35 38 41 43 46 49 51 52 54 55 59 62 66 69 69 71 73 78 85 91 98 103 104 104 105 108 109 115 129 135 130 123 121 123 126 126 125 125 130 131
352 351 354 350 340 336 335 333 334 337 336 336 339 339 337 340 345 347 348 352 357 360 0 3 6 4 358 357 357 358 2 9 13 15 20 27 34 37 38 37 34 30 26 27 29 31 33 35 38 41 45 50 54 55 57 58 60 64 70 75 76 77 80 82 84 89 94 96 98 100 101 101 106 115 120 119 115 114 114 116 116 116 115 111 106
350 352 356 355 346 338 336 334 335 338 339 338 338 340 341 341 344 346 348 350 353 353 354 358 360 360 1 3 4 5 7 7 6 6 10 17 23 28 31 33 33 30 27 27 28 30 33 35 35 37 40 44 49 53 58 63 67 71 77 85 90 92 93 94 95 97 97 97 98 98 99 99 104 109 108 106 108 111 111 108 108 110 110 107 101
351 351 354 354 350 345 341 340 340 342 344 342 341 344 345 344 343 344 346 349 350 349 349 351 352 354 0 6 11 17 21 13 6 7 11 13 16 21 24 26 29 30 29 28 29 32 34 35 36 37 38 40 44 49 54 62 69 76 82 88 93 95 96 99 104 107 108 109 107 105 106 108 110 109 107 105 109 114 113 111 112 114 113 110 103
351 352 352 354 355 353 349 345 345 349 353 353 353 351 348 346 345 344 344 348 352 350 348 348 348 351 357 3 9 22 31 27 17 13 12 12 15 20 21 23 27 30 30 31 32 35 37 39 40 39 39 40 43 47 52 58 66 75 82 87 90 91 91 93 99 104 107 109 109 108 110 112 112 111 110 111 114 114 110 109 110 106 99 94 84
347 350 353 355 356 355 353 350 351 355 357 357 358 357 354 354 356 354 350 352 355 354 351 349 347 350 357 3 11 22 31 31 25 20 17 15 15 18 20 22 26 31 34 35 36 39 41 44 45 43 42 44 47 50 53 58 66 76 84 89 91 93 92 91 93 95 97 99 100 102 104 107 109 109 108 109 111 110 105 101 98 89 78 68 57
345 348 352 355 357 358 358 356 357 358 358 359 1 2 1 3 7 7 4 359 357 359 360 358 355 355 360 7 15 22 25 26 25 24 21 18 16 17 21 23 25 30 35 39 41 43 44 45 49 49 46 47 52 55 58 64 71 78 87 93 93 93 92 90 89 92 95 96 95 94 94 96 99 100 98 98 100 98 92 85 79 71 63 52 44
346 346 349 353 356 358 360 1 2 0 360 1 3 4 6 8 10 10 8 4 1 4 8 9 7 4 5 9 14 17 18 20 23 25 26 24 20 18 21 24 26 29 34 37 41 45 48 48 51 53 50 48 51 55 60 68 75 80 87 94 93 91 90 90 92 96 98 96 93 89 87 87 88 87 83 81 82 79 71 64 59 54 48 39 31
344 345 347 351 354 356 358 1 2 4 4 3 1 0 4 8 9 9 8 5 3 4 8 11 12 10 9 12 15 16 17 18 19 22 25 26 24 22 23 26 29 32 34 37 41 45 47 47 49 51 51 51 53 58 65 73 80 84 87 89 90 90 91 91 93 92 89 86 84 81 79 76 74 71 65 61 61 60 54 48 48 44 37 28 19
341 343 345 348 351 353 355 357 359 1 3 4 2 1 0 3 6 8 7 6 5 5 6 9 10 10 11 13 15 18 21 21 20 21 21 21 22 24 25 26 28 30 32 35 39 40 42 44 44 46 49 50 53 61 71 79 86 91 90 87 86 87 86 83 80 78 76 74 70 68 64 58 54 52 45 36 37 42 40 38 40 37 30 22 8
337 339 342 344 347 350 352 354 356 357 357 358 359 359 359 360 2 5 5 5 6 6 4 4 5 6 8 10 12 15 20 23 23 23 22 20 20 22 21 21 24 26 28 31 34 35 36 37 36 37 42 44 47 55 67 78 87 93 90 83 80 79 77 74 68 61 55 49 40 37 37 34 32 32 26 22 27 31 27 28 27 20 15 10 354
335 337 339 339 343 347 348 349 350 352 352 352 352 354 357 358 359 2 3 2 2 3 3 1 1 1 2 5 6 8 12 17 20 21 21 21 20 19 18 17 19 21 22 24 26 27 29 29 30 31 33 36 44 55 64 72 78 82 81 78 75 70 63 59 51 36 27 21 17 18 21 24 26 29 26 26 30 28 22 23 19 9 3 355 340
334 336 337 337 340 343 344 345 347 348 349 350 348 348 350 351 353 356 358 357 356 358 358 358 358 359 359 0 2 3 5 9 12 14 17 19 17 16 15 15 16 17 18 18 19 21 22 23 26 27 31 40 53 64 68 69 67 64 64 67 63 50 37 29 19 8 4 3 6 12 18 20 22 27 30 31 34 32 24 18 10 359 351 341 332
332 333 333 334 338 340 341 342 343 343 345 346 344 342 343 344 344 347 349 350 351 350 349 350 354 355 354 354 356 357 360 3 4 5 9 12 12 12 12 11 12 13 13 12 13 14 15 17 20 22 29 45 60 68 67 60 51 52 61 61 46 26 9 0 354 352 359 8 13 16 16 15 17 25 30 32 32 30 22 13 4 357 349 339 329
Height
715 715 715 715 715 714 713 713 713 712 712 712 711 711 710 710 709 709 708 708 707 707 706 706 705 705 705 705 705 705 705 704 704 704 704 703 703 702 702 703 703 701 702 702 702 703 702 701 701 701 704 705 704 706 706 707 708 708 709 709 709 711 712 712 708 701 700 703 704 704 705 706 706 707 708 708 708 707 707 707 708 709 710 710 711
713 712 712 712 712 712 712 711 711 711 710 710 709 709 708 708 707 707 706 706 705 705 704 703 703 703 702 702 702 702 701 701 701 701 701 699 699 698 698 699 698 697 697 697 697 698 698 697 696 697 700 700 699 701 701 702 703 703 703 704 703 704 706 706 704 700 697 699 700 701 702 703 703 703 706 706 705 705 705 704 705 706 707 707 708
711 711 710 710 709 709 709 709 709 709 709 708 708 707 706 706 705 704 704 703 703 702 702 701 700 700 699 699 698 699 698 698 698 698 698 696 695 695 694 694 693 693 693 692 692 693 693 692 691 692 695 695 694 695 696 697 698 697 697 698 698 699 700 701 700 698 695 695 697 698 698 699 699 700 702 704 704 704 703 702 703 703 704 704 705
710 709 708 707 707 707 707 707 707 707 707 706 706 705 704 704 703 702 701 701 700 699 699 698 698 697 696 695 695 695 695 694 694 694 694 693 692 691 690 690 689 688 688 687 687 688 688 687 686 688 690 690 689 690 691 691 692 692 692 693 693 693 695 696 695 695 694 692 693 694 695 695 696 696 699 700 700 701 700 700 700 700 700 701 702
709 708 707 706 705 705 704 704 705 705 705 704 703 703 702 701 700 699 699 698 697 697 696 695 695 694 693 692 692 691 691 690 690 690 690 690 689 688 687 686 685 684 683 683 683 683 683 681 681 683 685 684 684 684 685 686 686 687 687 687 688 688 689 690 691 691 691 689 688 690 691 691 692 693 695 696 696 697 697 697 697 697 697 698 698
708 706 705 704 703 703 703 703 703 703 702 702 701 700 700 699 698 697 696 696 695 695 694 693 692 691 690 689 689 688 688 687 687 686 686 686 685 684 683 682 681 680 679 679 678 679 678 676 676 678 679 679 678 679 680 680 681 682 681 681 682 684 684 685 686 687 686 684 684 685 686 686 687 688 689 691 692 692 693 693 693 693 693 694 695
706 705 704 703 702 702 702 701 701 701 700 700 699 698 697 696 695 695 694 694 693 693 692 690 689 688 687 686 686 685 685 684 683 682 682 682 681 680 680 679 677 676 675 674 674 674 673 672 672 673 673 673 672 673 674 675 676 676 676 676 678 679 679 680 681 682 681 680 680 680 680 681 682 683 684 687 687 687 688 689 689 689 689 690 691
704 704 704 703 702 701 701 700 699 699 698 698 697 695 694 693 693 692 692 692 691 690 690 688 687 686 684 683 682 682 681 680 679 679 678 677 677 676 675 675 673 672 671 670 669 669 668 667 667 667 667 667 667 668 669 670 671 671 671 672 674 674 674 675 676 676 676 676 675 675 676 677 677 679 681 683 682 682 684 685 685 685 686 687 688
702 702 703 703 703 701 700 699 698 697 696 695 694 693 692 691 690 690 690 689 689 688 687 686 684 682 681 680 679 678 677 676 675 675 675 674 674 673 671 670 669 668 667 665 665 664 663 662 662 662 662 662 662 663 663 665 666 666 666 668 669 669 669 670 671 671 671 671 670 671 672 671 671 673 675 675 676 677 680 682 681 682 683 684 684
702 701 701 702 702 701 699 698 696 695 694 693 692 691 689 688 687 687 687 687 686 685 684 683 681 679 678 677 676 674 673 672 671 671 672 672 671 670 669 667 666 665 663 661 660 659 658 658 657 657 657 657 657 658 658 659 660 660 660 662 664 664 665 665 666 666 666 666 665 666 667 666 666 668 669 669 671 673 676 677 677 679 680 681 682
702 701 700 700 700 699 698 696 694 693 693 692 690 688 686 685 684 684 684 684 684 683 681 679 678 677 676 674 672 670 669 667 667 667 668 668 667 667 665 664 662 661 660 657 655 654 653 653 652 652 652 652 652 652 653 653 654 654 655 656 658 658 659 660 661 661 662 661 659 660 661 659 660 662 664 665 668 670 671 672 673 675 676 677 677
702 701 700 699 699 697 696 694 692 691 690 689 687 685 683 681 681 682 682 682 681 680 678 677 675 674 673 671 669 667 665 663 663 664 664 663 663 663 661 659 658 657 656 654 652 650 649 649 648 647 647 646 647 647 647 647 648 649 649 650 652 652 652 654 654 656 657 656 655 655 654 653 654 657 658 660 664 666 667 667 668 669 670 671 672
702 701 700 699 697 695 693 691 688 687 685 685 683 681 680 679 679 680 680 679 678 677 675 674 672 671 670 668 666 664 661 659 659 660 659 658 659 659 657 655 654 652 651 650 648 647 646 645 644 643 642 642 642 642 642 642 642 643 644 645 646 646 646 646 647 648 650 651 650 648 648 649 650 650 651 655 659 661 662 662 663 664 665 665 665
702 701 699 697 695 693 690 687 685 683 682 681 680 679 678 677 678 679 678 677 675 674 672 670 669 667 666 665 663 660 657 656 656 656 655 654 655 655 653 651 649 648 646 644 644 643 642 641 640 638 637 637 637 636 636 637 637 638 639 640 639 639 640 640 640 641 643 644 644 641 642 645 646 645 648 651 653 654 655 656 657 659 659 660 661
698 697 695 693 691 689 687 684 682 681 680 679 677 676 676 676 676 677 676 675 673 671 669 668 666 664 663 662 660 657 653 652 653 653 651 651 651 650 649 647 644 643 640 639 639 638 638 637 636 634 632 632 632 631 631 632 633 633 634 633 633 633 634 634 635 636 637 638 638 636 637 639 641 642 645 647 647 648 649 650 652 653 655 657 658
695 693 691 690 688 686 684 682 680 679 678 676 676 675 676 676 676 675 673 672 670 669 667 665 663 661 659 659 657 653 649 648 650 650 648 647 647 646 644 642 640 638 635 634 634 634 633 632 632 630 628 627 626 627 627 628 629 629 628 627 627 628 627 627 629 631 632 633 633 632 633 635 636 637 640 642 643 644 646 647 649 650 653 655 656
695 693 691 690 688 686 684 682 680 678 677 676 676 676 675 675 675 674 672 669 667 666 664 662 661 659 657 655 654 651 646 644 646 647 645 644 644 642 640 639 636 634 631 629 630 629 628 627 627 626 624 622 621 622 623 623 623 623 622 622 622 622 621 622 624 626 626 627 628 628 629 630 631 633 635 637 638 639 642 644 645 646 649 652 653
696 694 692 690 688 687 685 683 681 679 678 678 677 676 675 674 673 673 671 668 665 663 662 659 657 656 654 652 651 649 644 641 643 644 642 641 641 638 636 635 633 630 627 626 625 624 622 621 622 622 620 617 618 619 619 619 618 618 617 617 618 617 615 616 619 621 621 622 623 624 625 625 627 629 630 631 632 633 635 636 638 641 644 646 648
696 693 691 689 688 687 685 683 681 680 679 679 678 676 675 674 672 671 670 667 664 661 660 657 654 651 651 650 648 647 643 639 639 640 639 638 638 636 634 632 629 626 625 623 621 619 618 616 616 617 616 614 615 616 615 615 614 612 612 614 613 610 609 612 614 616 617 617 618 620 621 621 623 625 626 627 628 629 630 631 632 635 639 642 645
696 693 690 688 686 686 684 683 682 682 680 679 678 676 674 673 671 669 668 666 663 659 657 655 652 648 648 647 644 643 641 637 635 636 636 634 634 634 632 629 626 624 623 621 617 615 613 612 611 612 612 611 611 611 611 610 609 608 608 608 605 603 605 608 610 611 613 614 614 615 617 617 619 620 621 622 623 625 627 629 630 632 635 638 642
696 693 690 688 686 684 683 683 683 682 681 679 677 676 674 672 670 668 666 664 661 658 656 653 650 646 644 643 641 639 638 636 632 632 632 631 631 631 629 626 624 622 620 617 614 611 609 608 607 607 607 608 607 607 607 606 605 604 603 601 599 599 602 604 605 606 608 609 610 612 613 614 616 617 618 619 619 621 623 625 627 629 631 634 638
697 694 690 688 686 685 684 684 683 682 681 679 677 675 673 671 669 667 665 663 660 658 655 653 650 645 642 641 639 637 636 634 631 629 628 628 628 628 626 624 622 621 617 613 610 608 606 605 604 603 604 603 602 602 602 601 601 600 598 597 597 598 599 599 601 603 604 605 607 609 610 611 613 614 615 617 618 619 620 622 624 626 628 632 635
697 694 691 688 687 686 685 684 683 682 681 679 677 675 673 671 669 667 665 662 660 657 655 652 650 646 641 639 638 636 634 632 629 627 626 625 624 624 623 622 620 619 616 610 606 605 604 602 601 600 600 600 598 597 597 596 596 595 595 595 595 595 595 596 597 599 600 602 604 606 607 608 608 610 612 614 616 618 619 620 621 623 627 631 635
697 695 692 689 688 687 685 684 683 682 680 679 677 675 673 671 669 667 665 663 660 658 655 653 650 646 642 638 636 635 632 630 628 626 624 623 621 620 620 619 617 616 613 608 605 603 601 599 598 597 596 595 594 593 592 591 591 590 590 591 592 592 592 592 593 595 597 598 599 600 602 604 604 604 606 610 613 615 616 618 620 622 626 630 634
698 696 693 690 688 687 685 684 683 681 680 679 677 675 673 671 669 667 665 663 661 658 656 653 651 648 644 640 636 634 631 629 627 625 623 621 619 617 616 615 614 613 610 606 603 601 599 597 595 594 592 591 590 589 587 587 586 586 587 588 589 589 589 589 589 591 592 594 594 595 597 600 602 602 604 606 610 613 614 615 617 620 624 628 632
699 697 695 691 688 686 685 684 682 681 679 678 676 675 673 671 669 666 664 663 661 658 655 653 650 647 644 641 638 634 631 629 627 624 622 620 617 615 613 611 610 609 607 604 601 599 597 595 593 591 590 588 587 586 585 585 584 584 585 586 587 588 588 588 588 588 589 590 592 594 595 597 600 602 603 604 607 610 612 613 614 617 621 625 628
699 698 695 692 688 686 684 683 682 680 678 677 675 674 672 670 668 666 664 662 660 658 655 652 650 647 644 641 639 636 633 630 628 625 623 620 617 614 612 610 608 607 605 602 600 598 596 593 591 590 588 587 586 586 585 585 585 584 584 585 586 587 588 589 589 589 590 591 592 594 596 597 599 601 603 604 606 609 611 612 613 616 620 624 627
700 698 695 693 689 687 685 684 682 680 677 675 674 672 671 669 667 666 664 662 660 658 655 653 650 648 645 642 639 637 634 632 629 627 624 621 618 615 612 610 608 606 605 602 600 597 595 593 591 590 588 587 587 586 586 586 586 586 586 586 586 586 587 589 589 590 591 592 593 595 597 599 601 603 605 606 608 610 612 614 615 617 620 623 626
699 697 695 693 690 688 686 684 682 680 677 674 672 671 670 669 667 665 663 662 660 658 656 654 652 649 646 644 641 638 636 633 631 629 626 623 620 617 614 611 609 607 605 603 601 598 596 594 592 591 590 589 588 587 587 587 587 587 588 588 588 588 589 589 590 591 591 592 593 594 596 598 600 603 606 609 612 614 616 617 617 618 620 623 626
700 697 695 693 691 689 686 684 682 680 678 675 672 669 668 667 667 665 663 661 660 658 656 654 652 650 647 645 643 641 638 635 632 629 627 624 621 619 616 613 610 608 607 605 603 600 598 596 594 593 592 591 590 590 589 589 589 589 589 589 590 590 591 592 592 593 594 595 595 595 595 597 598 600 602 607 611 615 617 618 619 620 622 624 627
700 697 696 694 692 690 688 685 683 681 678 676 674 670 667 665 665 664 663 660 658 657 655 653 651 650 648 646 643 641 638 635 632 630 627 624 621 619 617 614 611 610 609 607 605 603 601 598 596 595 594 593 592 592 591 591 591 591 591 591 591 592 592 593 594 596 597 598 598 597 598 599 599 600 602 604 607 610 613 616 618 620 622 624 627
701 699 697 696 693 692 690 687 684 681 679 677 675 673 670 666 663 662 662 660 659 656 654 652 650 649 648 646 643 640 637 634 632 630 627 624 621 619 617 615 613 611 610 608 607 606 604 601 598 596 595 594 594 594 593 593 593 592 592 593 593 593 594 595 595 596 598 600 601 601 602 602 603 604 606 607 608 609 611 613 615 618 621 624 627
702 700 698 696 694 692 690 688 685 682 680 678 676 674 673 670 666 663 660 659 658 656 654 652 650 649 647 645 643 640 637 634 631 629 627 624 621 619 617 616 615 613 611 609 609 608 606 604 602 600 598 597 596 595 595 595 595 595 594 594 594 594 595 596 597 598 599 601 603 605 606 607 607 608 609 610 611 612 613 614 616 618 621 624 627
702 701 699 697 694 692 690 688 686 684 681 680 678 675 674 672 670 666 662 659 656 654 653 652 650 649 647 645 642 640 637 633 631 629 627 624 622 620 618 617 616 614 612 611 611 610 609 607 605 603 602 600 599 598 598 598 598 597 597 596 596 595 595 596 598 600 602 603 606 608 609 610 611 611 612 613 615 616 616 617 619 620 622 625 627
702 701 699 697 695 692 690 688 687 685 683 681 678 677 674 671 670 668 665 662 658 655 653 652 650 650 648 645 642 640 637 634 632 630 627 625 623 621 619 618 617 616 615 614 614 613 612 610 609 607 605 604 602 602 601 601 600 600 600 600 599 598 598 598 599 601 603 606 608 610 612 613 613 614 615 616 617 618 618 619 620 622 624 626 629
702 701 699 697 695 692 690 688 687 685 684 681 679 677 674 672 670 667 665 663 661 658 655 653 651 649 648 645 643 641 639 636 634 631 629 627 624 622 621 621 621 621 619 618 617 615 614 613 612 610 609 607 606 605 605 604 604 604 604 604 603 602 602 603 603 603 604 606 609 611 613 614 615 617 618 619 619 620 620 621 622 624 626 628 631
702 701 699 697 695 692 690 688 687 685 684 682 680 677 674 672 670 667 665 663 661 659 657 654 651 648 646 645 643 642 640 639 636 633 631 629 626 625 625 625 625 625 623 621 620 618 617 616 615 614 612 611 610 609 608 608 607 607 607 608 607 607 607 607 607 608 608 610 611 613 614 616 617 618 619 620 621 622 622 623 624 626 628 631 633
702 700 699 697 695 692 690 688 686 685 683 681 679 677 675 672 670 668 666 664 662 660 658 655 653 651 649 647 645 644 642 640 637 634 632 631 629 629 629 629 629 628 627 625 623 621 620 619 619 618 616 614 613 612 611 611 611 610 611 611 611 611 611 611 612 612 613 614 615 616 617 618 619 620 621 622 623 624 624 625 626 628 630 633 634
701 699 698 696 694 693 691 689 687 685 683 682 680 677 675 673 670 668 667 665 664 662 659 657 655 653 651 649 647 646 644 642 640 638 637 635 634 633 632 632 631 631 629 628 626 625 624 623 622 621 619 618 616 615 614 614 614 614 614 614 614 614 615 615 616 616 617 617 618 618 619 620 621 622 623 624 626 626 627 628 629 630 632 634 635
701 699 697 696 695 693 691 690 688 686 684 682 680 678 676 674 671 669 668 666 665 663 661 659 657 655 653 651 649 648 647 647 646 644 642 640 638 637 635 634 633 633 632 630 629 628 627 626 625 624 623 621 619 618 617 616 617 617 617 617 617 617 617 618 618 619 620 621 621 622 622 623 624 625 626 627 628 629 629 630 631 632 634 635 636
701 700 698 697 695 694 692 690 689 687 685 682 680 678 676 674 673 671 669 667 666 664 663 661 659 657 655 653 651 649 649 649 649 648 646 644 642 640 638 637 636 635 634 632 631 630 629 628 627 626 625 624 622 621 619 619 619 619 619 619 619 619 619 620 620 621 622 623 624 624 625 626 626 627 628 629 630 631 631 632 633 634 635 636 636
702 700 698 697 695 693 692 690 688 686 684 682 680 679 677 676 674 672 670 668 667 665 663 662 661 659 657 654 652 650 649 649 649 649 648 646 645 643 641 640 638 637 636 634 633 632 631 630 629 629 628 626 625 623 622 622 622 622 621 621 621 621 621 622 623 624 624 625 626 626 627 628 628 629 630 630 631 632 633 634 635 635 636 636 636
702 700 699 697 695 694 692 690 688 686 684 683 681 680 679 677 675 674 672 670 668 666 664 663 661 659 657 655 653 651 650 649 649 649 648 648 647 645 644 642 641 639 638 636 635 634 633 632 631 630 630 629 628 626 625 625 625 625 624 623 623 623 624 625 626 627 627 628 628 629 629 630 630 630 631 632 632 633 634 634 635 635 635 635 635
702 700 699 697 695 694 692 690 688 686 685 683 682 681 680 678 676 674 673 671 669 667 665 663 662 660 658 657 655 653 652 650 649 649 648 648 648 647 646 644 643 641 639 638 636 635 634 633 632 631 631 630 629 628 628 628 627 627 627 626 626 626 626 627 628 629 630 630 631 631 631 632 632 632 633 633 633 634 634 634 634 634 635 635 635
702 700 698 697 695 693 692 690 688 686 685 684 683 681 680 679 677 675 673 672 670 668 666 664 663 662 660 658 657 655 654 652 651 649 648 648 647 647 646 645 644 642 641 639 638 636 635 634 633 632 631 631 631 630 630 630 630 630 630 629 629 629 629 629 630 631 631 632 632 632 633 633 634 634 634 634 634 634 634 634 634 634 634 635 635
702 700 698 697 695 693 691 690 688 687 685 684 683 682 681 679 677 675 674 672 670 669 667 665 664 663 661 660 659 657 656 654 652 651 649 648 647 647 646 645 644 643 642 640 639 637 636 635 634 633 633 633 632 632 632 632 632 632 632 632 631 631 631 632 632 632 632 633 633 633 634 634 634 635 634 635 635 634 634 634 634 634 634 634 634
701 700 698 696 695 693 691 690 688 687 686 685 683 682 681 679 677 676 674 673 671 670 668 667 665 664 663 662 660 659 657 655 654 652 650 649 648 647 646 645 645 644 643 641 640 639 638 637 636 636 635 635 634 634 634 634 634 634 633 633 633 633 633 633 633 633 634 634 634 634 634 634 634 634 635 635 635 635 635 635 634 634 634 634 634
701 699 697 696 694 693 691 690 688 687 686 685 684 682 681 679 678 676 675 673 672 670 669 667 666 665 664 663 661 660 658 656 655 653 652 650 649 648 647 646 645 644 643 643 642 641 640 639 639 638 637 637 636 635 635 635 635 635 635 634 634 634 635 635 635 635 635 634 634 634 634 633 634 634 634 634 635 635 634 635 634 634 635 635 635
700 699 697 695 694 693 691 690 688 687 686 685 684 682 681 680 678 677 675 674 672 671 670 668 667 666 665 663 662 660 659 657 655 654 653 651 650 649 648 647 646 645 644 643 643 642 641 641 640 640 639 638 637 636 636 636 636 636 636 636 636 635 636 636 635 635 635 635 634 634 634 633 634 634 634 634 634 634 634 634 634 635 635 635 635
699 698 696 695 693 692 691 690 688 687 686 685 684 682 681 680 678 677 676 674 673 672 670 669 668 667 665 664 663 661 660 658 657 655 654 652 651 650 649 648 647 646 645 644 643 642 642 641 641 640 640 639 638 637 637 637 637 636 637 637 636 636 636 636 636 635 635 635 634 634 633 633 633 633 633 633 634 634 634 634 634 635 635 635 636
698 697 695 694 693 692 690 689 688 687 686 685 684 682 681 680 678 677 676 675 673 672 671 670 669 667 666 665 663 662 660 659 658 656 655 654 652 651 650 649 648 647 646 645 644 643 642 642 641 641 640 640 639 638 638 638 638 637 637 637 637 637 636 636 636 635 635 634 634 634 633 633 633 633 633 633 633 633 634 634 634 635 635 635 635